User: anonymous   Login
Location: Stockholm
(59.3293°N, 18.0686°E)
Time: 04:51:53
(UTC+02:00)
Language:

N. Korean satellite - Orbit

View from above orbital plane
View from above orbital plane
View from above satellite
View from above satellite

Ground track
Ground track

The orbit data is extracted from the following two-line orbital elements,

1 39026U 12072A   18266.91702606 +.00001838 +00000-0 +70606-4 0  9999
2 39026 097.2113 273.9410 0038139 335.1901 024.7503 15.27037024320666
Epoch (UTC): 23 September 2018 22:00:31
Eccentricity: 0.0038139
inclination: 97.2113°
perigee height: 458 km
apogee height: 511 km
right ascension of ascending node: 273.9410°
argument of perigee: 335.1901°
revolutions per day: 15.27037024
mean anomaly at epoch: 24.7503°
orbit number at epoch: 32066

The dashed part of the orbit path shows where the satellite is in the earth's shadow,  

DLR